sat.trackr.live / text

‹ back to catalog

STARLINK-31411

NORAD 59182 · 2024-045E

PAYLOAD ACTIVE UNKNOWN

§ Identity

Operator
Country
US
Launch date
2024-03-10
Launch site
AFETR
Launch vehicle
Mass (kg)
RCS (m²)

Purposes: comms

External: N2YO · Heavens-Above · Gunter

§ Orbital elements

Epoch: 2026-05-25T01:17:44.405088Z

Period
94.27 min
Inclination
43.0038°
Eccentricity
0.0001644
Mean motion
15.27584797 rev/d
Perigee alt
481.9 km
Apogee alt
484.2 km
Semi-major
6,861.2 km
B*
1.4341e-4
RAAN
20.9931°
Arg perigee
264.2599°
Mean anomaly
95.8065°
Rev number
12,484

§ Raw data

STARLINK-314111 59182U 24045E   26145.05398617  .00003687  00000+0  14341-3 0  99962 59182  43.0038  20.9931 0001644 264.2599  95.8065 15.27584797124848

JSON: /api/v1/satellites/59182 · /tle

For live sub-satellite position, see the globe view (requires WebGL).

§ Visibility from observer

Set your observer location to see the next 7 days of passes ≥ 10°. The values pass through the URL so the page stays shareable.

No JS? Fill the form by hand. The geolocation button needs JavaScript.